[[{"header":{"parameterUnit":"m.s-1","parameterCategory":1,"la1":30.2991,"la2":30.254,"lo1":-89.0895,"lo2":-89.0444,"dy":0.0017,"dx":0.0017,"nx":28,"ny":28,"refTime":"2023-08-22T21:00:00:Z","depth":0,"parameterNumber":2,"parameterNumberName":"U-component_of_WINDS"},"data":[0,0,0,0,0,0,0,0,0,0,0,0,0,0,0,0,0,0,0,0,0,0,0,0,0,0,0,0,0,0,0,0,0,0,0,0,0,0,0,0,0,0,0,0,0,0,0,0,0,0,0,0,0,0,0,0,0,0,2.4015,2.4016,0,2.4108,2.4109,2.411,2.4123,2.4123,2.4122,2.4121,2.4213,2.4216,2.4219,0,0,0,0,0,0,0,0,0,0,0,0,0,2.3845,2.3848,2.4015,2.4016,2.4017,2.4108,2.4109,2.411,2.4124,2.4123,2.4122,2.4121,2.4212,2.4216,2.4219,0,0,0,0,0,0,0,0,0,0,0,0,0,2.3926,2.3849,2.4015,2.4035,2.4038,2.4108,2.4109,2.4111,2.4124,2.4123,2.4121,2.412,2.421,2.4215,2.422,2.4275,0,0,2.4235,2.4237,0,0,0,0,0,0,0,0,2.3922,2.3933,2.4031,2.4034,2.4037,2.4103,2.4083,2.4166,2.4124,2.4091,2.4121,2.412,2.4177,2.4185,2.4205,2.4279,2.4283,2.4235,2.4238,2.424,2.4242,0,0,0,0,0,0,0,2.3916,2.3929,2.4052,2.4032,2.4036,2.4038,2.4048,2.4099,2.414,2.4094,2.4095,2.4106,2.4178,2.42,2.4207,2.4285,2.4235,2.4239,2.4242,2.4244,2.4408,2.4409,0,0,0,0,0,0,2.3907,2.3924,2.4049,2.4054,2.3975,2.4042,2.4053,2.4083,2.4139,2.4147,2.4107,2.4106,2.4192,2.4201,2.421,2.4277,2.424,2.4245,2.4247,2.4406,2.4408,2.441,0,0,0,0,0,0,2.3904,2.3918,2.4045,2.399,2.4006,2.4046,2.4079,2.4085,2.4107,2.4149,2.4156,2.4122,2.4192,2.4203,2.4259,2.428,2.4247,2.4251,2.4405,2.4407,2.4409,2.4412,0,0,0,0,0,0,2.3899,2.3917,2.3939,2.399,2.4009,2.4093,2.4081,2.4088,2.4116,2.4116,2.4165,2.4172,2.4192,2.4251,2.4264,2.4286,2.4255,2.4403,2.4406,2.4408,2.441,2.4414,2.4417,0,0,0,0,0,2.3893,2.3936,2.394,2.3955,2.4038,2.4094,2.4105,2.4128,2.4117,2.4139,2.4166,2.417,2.4277,2.4257,2.4271,2.4295,2.4401,2.4405,2.4408,2.4408,2.4413,2.4417,0,0,0,0,0,0,2.3885,2.3943,2.3948,2.401,2.4047,2.4096,2.4125,2.4132,2.4172,2.417,2.4196,2.4207,2.426,2.4284,2.4261,2.4351,2.4338,2.4344,2.4334,2.4339,2.4342,2.4334,2.4259,0,0,0,0,0,2.3891,2.3934,2.3981,2.4031,2.4049,2.4084,2.4109,2.4124,2.4163,2.4179,2.421,2.4247,2.4288,2.4315,2.4356,2.4414,2.4424,2.4438,2.4441,2.4444,2.4449,2.4479,2.4486,2.442,2.442,2.442,0,0,2.3903,2.394,2.3965,2.403,2.4061,2.4103,2.4097,2.4142,2.4173,2.4185,2.4239,2.4263,2.4306,2.4363,2.4389,2.4384,2.4469,2.4448,2.445,2.4453,2.4483,2.449,2.4495,2.4422,2.4422,2.4422,0,0,2.3946,2.3979,2.4023,2.4054,2.4101,2.4124,2.4134,2.4183,2.4199,2.4254,2.4264,2.4301,2.4372,2.4402,2.4426,2.448,2.4484,2.4493,2.4511,2.4541,2.4546,2.455,2.4568,2.4574,2.4497,2.4497,2.4497,0,2.3954,2.4019,2.4044,2.4089,2.4116,2.4131,2.4175,2.4203,2.426,2.4279,2.4272,2.4362,2.4392,2.4455,2.4468,2.4488,2.4499,2.4486,2.4543,2.4548,2.4553,2.457,2.4576,2.4498,2.4498,2.4498,2.4498,0,2.4026,2.4071,2.4101,2.4156,2.4188,2.4231,2.4262,2.429,2.4302,2.4325,2.438,2.4417,2.4464,2.4481,2.4492,2.4545,2.454,2.4538,2.4525,2.4559,2.4575,2.4582,2.4499,2.4499,2.4498,2.4498,0,0,2.4066,2.4135,2.4146,2.4171,2.4223,2.4258,2.4302,2.4349,2.4372,2.4411,2.4447,2.4508,2.4506,2.4534,2.4549,2.4576,2.4614,2.457,2.4572,2.4575,2.4672,2.4671,2.4679,2.4618,2.4619,2.462,2.4668,0,2.4113,2.4193,2.4217,2.4283,2.4324,2.4338,2.4376,2.4412,2.4435,2.4471,2.4496,2.4537,2.4533,2.455,2.4577,2.4603,2.4633,2.46,2.465,2.4651,2.4636,2.4687,2.4687,2.473,2.4674,2.4675,2.4676,0,2.4179,2.422,2.429,2.4337,2.4355,2.4389,2.4434,2.4469,2.451,2.4524,2.4555,2.4568,2.4613,2.4599,2.466,2.4637,2.4659,2.4675,2.4677,2.4681,2.4664,2.469,2.4745,2.475,2.4687,2.4686,2.4685,0,2.4198,2.4271,2.4322,2.4344,2.44,2.4423,2.4447,2.4487,2.4513,2.4553,2.457,2.4614,2.4637,2.467,2.4693,2.4681,2.4752,2.474,2.4764,2.4763,2.4776,2.4775,2.4833,2.4794,2.4794,2.4793,2.4793,0,2.4247,2.4289,2.4332,2.4363,2.441,2.4437,2.4482,2.4507,2.4542,2.4577,2.4593,2.4625,2.4656,2.4692,2.4711,2.4757,2.4768,2.478,2.4784,2.4778,2.4776,2.4791,2.4788,2.4795,2.4795,2.4794,2.4794,0,2.4276,2.4307,2.4363,2.4412,2.4425,2.4458,2.4499,2.4529,2.4552,2.4597,2.4609,2.4645,2.4688,2.4716,2.4771,2.4784,2.4834,2.4839,2.4821,2.4822,2.4843,2.484,2.4911,2.4921,2.4877,2.4878,2.4878,0,2.4305,2.4337,2.439,2.4415,2.444,2.4481,2.4508,2.4536,2.4563,2.4612,2.4635,2.468,2.4717,2.4785,2.4816,2.4858,2.4862,2.4884,2.4868,2.486,2.486,2.4857,2.4859,2.4886,2.4886,2.4886,2.4887,0,2.4351,2.4365,2.4404,2.4449,2.4482,2.4518,2.4555,2.4574,2.4608,2.4638,2.4683,2.4712,2.4768,2.4811,2.4856,2.488,2.4888,2.4892,2.4899,2.4892,2.4879,2.4884,2.4826,2.489,2.4889,2.4889,2.4889,2.4889,2.438,2.4409,2.445,2.4494,2.4524,2.4558,2.4588,2.4616,2.4654,2.4702,2.4716,2.4763,2.4801,2.4862,2.4887,2.4923,2.492,2.4931,2.4933,2.4935,2.4934,2.4875,2.4931,2.4931,2.4931,2.4931,2.4931,0,2.4425,2.4453,2.4493,2.4543,2.4577,2.4584,2.4624,2.4651,2.4692,2.4728,2.4764,2.4815,2.4857,2.4892,2.4935,2.4957,2.4961,2.4967,2.4964,2.4969,2.4935,2.4924,2.4962,2.4962,2.4962,2.4962,2.4962,2.4962,2.4453,2.4502,2.452,2.4584,2.4611,2.4658,2.468,2.471,2.4739,2.4795,2.4831,2.4853,2.4888,2.4934,2.4972,2.4981,2.4995,2.4999,2.5009,2.4976,2.4972,2.4969,2.4958,2.5003,2.5003,2.504,2.504,2.504]},{"header":{"parameterUnit":"m.s-1","parameterCategory":1,"la1":30.2991,"la2":30.254,"lo1":-89.0895,"lo2":-89.0444,"dy":0.0017,"dx":0.0017,"nx":28,"ny":28,"refTime":"2023-08-22T21:00:00:Z","depth":0,"parameterNumber":3,"parameterNumberName":"V-component_of_WINDS"},"data":[0,0,0,0,0,0,0,0,0,0,0,0,0,0,0,0,0,0,0,0,0,0,0,0,0,0,0,0,0,0,0,0,0,0,0,0,0,0,0,0,0,0,0,0,0,0,0,0,0,0,0,0,0,0,0,0,0,0,1.9732,1.9731,0,1.9687,1.9686,1.9686,1.9626,1.9625,1.9624,1.9624,1.9577,1.9577,1.9576,0,0,0,0,0,0,0,0,0,0,0,0,0,1.9766,1.9766,1.9732,1.9731,1.9731,1.9687,1.9686,1.9685,1.9627,1.9625,1.9624,1.9623,1.9577,1.9577,1.9576,0,0,0,0,0,0,0,0,0,0,0,0,0,1.9739,1.9766,1.9732,1.9696,1.9692,1.9687,1.9686,1.9685,1.9627,1.9625,1.9624,1.9623,1.9577,1.9577,1.9576,1.9602,0,0,1.9575,1.9574,0,0,0,0,0,0,0,0,1.9741,1.9738,1.9702,1.9698,1.9694,1.9661,1.9681,1.9657,1.9627,1.9652,1.9624,1.9622,1.9606,1.9603,1.9598,1.96,1.9598,1.9575,1.9574,1.9574,1.9574,0,0,0,0,0,0,0,1.9743,1.974,1.9714,1.9701,1.9697,1.9682,1.9676,1.9676,1.9637,1.9649,1.9645,1.9641,1.9604,1.9598,1.9596,1.9597,1.9575,1.9574,1.9574,1.9574,1.9617,1.9618,0,0,0,0,0,0,1.975,1.9742,1.9715,1.9712,1.9714,1.9682,1.9676,1.9673,1.9637,1.9631,1.9642,1.9638,1.96,1.9597,1.9594,1.9621,1.9574,1.9574,1.9573,1.9615,1.9617,1.9619,0,0,0,0,0,0,1.9751,1.9748,1.9717,1.9726,1.9721,1.9683,1.968,1.9673,1.9667,1.9632,1.9624,1.9644,1.9599,1.9595,1.96,1.9619,1.9573,1.9573,1.9614,1.9616,1.9618,1.9676,0,0,0,0,0,0,1.9752,1.9749,1.9759,1.9726,1.972,1.9724,1.9681,1.9673,1.9667,1.9661,1.9631,1.9625,1.9597,1.9601,1.96,1.9617,1.9572,1.9612,1.9614,1.9617,1.9672,1.968,1.9686,0,0,0,0,0,1.9754,1.9777,1.976,1.9757,1.9732,1.9726,1.9722,1.969,1.9669,1.9678,1.9654,1.9626,1.9617,1.9602,1.96,1.9618,1.961,1.9614,1.9617,1.9669,1.9678,1.9686,0,0,0,0,0,0,1.9813,1.9772,1.9752,1.9766,1.975,1.9716,1.9726,1.9701,1.969,1.9686,1.9646,1.9639,1.9649,1.9634,1.9618,1.964,1.9609,1.9612,1.965,1.9658,1.9665,1.9668,1.9572,0,0,0,0,0,1.9827,1.9826,1.979,1.9806,1.9799,1.9764,1.976,1.9737,1.9718,1.9711,1.9688,1.9671,1.9664,1.966,1.9652,1.967,1.9662,1.968,1.9688,1.9694,1.9696,1.9703,1.9711,1.9629,1.9629,1.9629,0,0,1.9857,1.9835,1.9837,1.9817,1.9802,1.98,1.9759,1.976,1.9758,1.9711,1.9714,1.9697,1.9675,1.9686,1.969,1.9674,1.9717,1.9698,1.9703,1.9702,1.9707,1.9715,1.9722,1.9631,1.9631,1.9631,0,0,1.9911,1.9895,1.9905,1.9891,1.9868,1.9844,1.9847,1.9817,1.9803,1.9806,1.977,1.9768,1.9757,1.9743,1.9734,1.9782,1.9755,1.978,1.9817,1.9824,1.9831,1.9836,1.9852,1.9858,1.9783,1.9783,1.9784,0,1.9952,1.9949,1.9914,1.9917,1.9909,1.9866,1.9876,1.9863,1.9839,1.9834,1.9816,1.9801,1.9784,1.979,1.9802,1.9797,1.9798,1.9783,1.9833,1.9838,1.9842,1.9857,1.9863,1.9787,1.9786,1.9786,1.9786,0,1.9999,1.9997,2.0008,1.9986,1.9979,1.9986,1.9951,1.9949,1.9926,1.9904,1.9907,1.9884,1.987,1.987,1.9848,1.9873,1.9864,1.984,1.9808,1.9854,1.9867,1.9872,1.9791,1.979,1.9789,1.9788,0,0,2.0089,2.0046,2.0051,2.004,2.0011,2.0009,2.0013,1.9999,1.9997,1.9982,1.9984,1.9975,1.9953,1.9943,1.9918,1.9925,1.9963,1.99,1.9899,1.9912,1.9988,2.0006,2.0013,1.9945,1.9946,1.9947,1.999,0,2.0137,2.0141,2.011,2.0123,2.0121,2.008,2.0083,2.0066,2.0046,2.004,2.0018,2.0012,1.9983,1.9977,1.9981,1.9957,1.9977,1.9954,1.9945,1.9945,1.9951,2.002,2.0039,2.0081,1.9995,1.9995,1.9996,0,2.0193,2.0181,2.0194,2.0163,2.0161,2.0165,2.0149,2.0145,2.0124,2.0108,2.0097,2.0069,2.007,2.004,2.0041,2.0025,2.002,2.0007,2.0008,2.0006,1.9973,2.0019,2.0093,2.0099,2.0004,2.0003,2.0003,0,2.0256,2.0243,2.0248,2.024,2.0205,2.0209,2.0194,2.0172,2.0165,2.0151,2.0146,2.0133,2.0126,2.0115,2.0084,2.0065,2.0088,2.0055,2.0074,2.0075,2.008,2.008,2.0155,2.0078,2.0078,2.0078,2.0078,0,2.0313,2.0322,2.0276,2.028,2.0288,2.0252,2.0262,2.0243,2.0223,2.0222,2.0186,2.0185,2.0144,2.0138,2.0113,2.0117,2.0114,2.0101,2.0094,2.0104,2.0105,2.0099,2.0095,2.008,2.0079,2.0079,2.0079,0,2.0385,2.0354,2.0358,2.0324,2.0316,2.0324,2.0295,2.0296,2.0274,2.0272,2.027,2.0234,2.0226,2.0194,2.0177,2.016,2.0171,2.0159,2.0179,2.0174,2.0194,2.0193,2.0267,2.0274,2.0194,2.0195,2.0196,0,2.0422,2.0428,2.0396,2.0392,2.0379,2.0374,2.0367,2.0332,2.0326,2.0302,2.0306,2.0294,2.0283,2.0271,2.0244,2.023,2.0217,2.0244,2.0214,2.0224,2.0216,2.0216,2.0216,2.025,2.0251,2.0252,2.0252,0,2.0492,2.0477,2.0468,2.0454,2.0447,2.0434,2.042,2.0419,2.0379,2.0374,2.0365,2.0356,2.0339,2.0328,2.031,2.0294,2.0266,2.0262,2.0265,2.0275,2.0286,2.0279,2.0195,2.026,2.0259,2.0259,2.0258,2.0258,2.0547,2.055,2.0528,2.0519,2.0504,2.0491,2.049,2.0468,2.046,2.0443,2.0422,2.0416,2.0393,2.0367,2.0353,2.0346,2.0331,2.0336,2.0338,2.0339,2.0344,2.0287,2.0343,2.0343,2.0343,2.0342,2.0342,0,2.0614,2.0598,2.059,2.0571,2.0564,2.0539,2.0521,2.0516,2.0511,2.0493,2.0482,2.0471,2.046,2.0431,2.0417,2.0417,2.0404,2.0414,2.0414,2.041,2.0359,2.0357,2.0425,2.0425,2.0425,2.0425,2.0425,2.0425,2.0648,2.0652,2.0634,2.063,2.0613,2.0606,2.0598,2.0585,2.057,2.056,2.055,2.0531,2.0508,2.0492,2.048,2.0472,2.0468,2.0482,2.047,2.0422,2.0414,2.0407,2.0404,2.0482,2.0482,2.0522,2.0522,2.0523]}]]